Theta_e
314 315 315 316 317 317 318 319 319 320 322 322 320 319 323 325 321 319 326 329 326 329 334 337 339 340 338 338 337 336 336 336 337 338 337 336 336 341 346 352 355 356 359 364 364 362 362 360 360 360 361 361 361 360 361 361 360 359 359 358 357 359 361 362 362 362 361 360 359 360 360 358 357 356 355 354 353 352 355 357 356 354 352 354 358 360 360
312 312 313 314 314 315 316 317 318 320 321 321 321 322 324 326 323 324 329 330 329 332 334 338 343 342 338 339 339 335 339 341 341 341 339 336 335 336 338 346 352 355 358 362 364 366 365 362 360 359 360 360 361 361 362 362 360 359 359 358 359 360 362 362 363 362 362 361 360 360 360 361 359 357 356 355 355 354 355 357 356 356 354 352 355 359 360
312 311 312 312 312 314 314 315 317 319 320 321 321 322 324 324 324 327 328 328 328 332 332 337 342 341 338 340 339 339 341 344 346 345 341 340 341 342 342 343 347 350 353 357 364 367 366 363 360 360 359 360 360 360 361 361 360 360 360 360 360 360 362 363 364 364 363 362 362 361 361 362 361 360 358 357 355 355 355 358 357 358 355 353 353 355 358
311 311 311 312 312 313 313 314 317 318 318 320 321 322 323 323 323 325 324 323 327 332 332 335 339 339 338 339 340 343 344 344 347 345 343 344 343 343 345 347 349 350 351 352 359 364 364 363 361 359 359 359 359 359 360 361 361 360 359 361 362 361 364 364 365 366 364 364 364 362 362 363 363 362 360 358 357 357 356 358 360 360 359 357 355 353 355
310 310 311 312 312 313 313 314 316 318 319 320 320 321 323 324 324 324 322 323 328 331 332 338 341 339 340 343 344 343 344 343 343 342 343 344 343 343 346 348 350 352 352 351 354 358 363 363 360 359 359 358 359 359 359 360 360 360 360 361 363 363 363 365 366 367 366 365 365 365 364 366 367 365 363 360 359 360 359 360 363 363 361 359 358 357 355
311 311 311 312 313 314 314 314 316 319 319 320 320 321 322 323 324 324 325 327 330 332 336 341 342 342 343 343 342 341 342 340 339 340 342 344 344 346 347 346 349 354 358 359 359 359 360 360 360 360 357 357 359 358 358 359 359 359 360 360 362 363 364 365 367 368 367 367 367 367 368 368 368 368 365 363 362 361 361 363 364 365 364 361 361 361 360
311 311 312 313 313 314 315 315 317 317 318 320 320 321 322 323 323 324 325 327 330 336 340 340 340 341 341 340 340 339 338 340 342 344 345 346 349 350 350 349 353 357 362 363 364 363 360 356 357 359 357 357 359 358 357 359 359 360 360 360 363 363 364 366 368 368 369 368 368 369 369 369 370 368 367 366 364 362 363 364 365 366 365 364 363 364 362
311 311 312 312 313 314 314 315 317 318 320 321 321 321 321 320 324 328 330 330 332 336 337 336 337 338 338 338 339 338 337 341 342 344 346 347 348 349 351 353 356 360 360 361 363 364 362 358 354 356 357 357 357 358 358 359 359 359 360 361 363 363 364 366 369 369 369 369 370 371 371 370 370 370 368 367 366 365 363 363 365 367 366 365 365 365 365
311 311 311 312 313 313 313 318 323 325 326 327 327 329 328 325 326 331 334 336 336 334 334 334 334 337 337 337 337 337 337 336 336 337 340 342 344 347 350 352 355 359 360 361 362 363 363 362 355 353 355 356 356 358 357 358 359 359 359 361 362 364 365 366 368 369 370 370 371 371 371 371 371 370 369 369 368 366 365 364 365 366 367 366 365 365 366
311 310 310 312 313 312 316 323 327 326 326 328 330 333 336 334 330 331 333 334 334 332 333 332 333 337 339 338 339 338 334 331 333 334 336 338 342 346 350 353 356 358 359 360 361 362 360 359 356 353 355 355 355 358 357 357 358 359 359 361 362 365 366 366 368 370 370 370 371 371 371 371 370 370 370 370 369 367 366 366 365 365 366 366 365 365 366
311 310 310 312 312 315 323 328 325 323 324 325 328 335 338 335 331 329 330 331 331 330 329 330 334 339 342 339 338 335 330 329 330 332 334 336 341 346 351 354 355 357 359 360 363 363 360 355 353 351 354 356 356 357 357 357 359 359 360 360 362 365 366 366 369 371 370 371 371 371 372 371 370 371 370 370 370 368 367 366 365 364 365 366 366 366 365
312 311 311 312 311 318 327 327 322 322 323 324 328 336 337 332 329 327 327 328 327 327 327 329 334 339 342 339 335 329 327 328 329 331 333 335 338 345 351 354 355 357 359 361 362 361 358 354 350 349 353 355 355 357 358 358 358 360 360 361 364 367 366 367 370 371 371 371 371 371 372 371 371 371 371 370 370 370 367 366 364 363 364 365 366 366 365
312 312 312 311 311 318 324 323 321 322 321 325 332 334 330 327 327 325 324 325 324 323 325 328 331 333 332 330 327 325 325 326 327 329 332 335 339 345 351 355 356 357 358 360 360 358 356 353 350 349 353 356 357 359 358 359 359 359 360 362 364 367 367 367 370 371 371 371 371 371 372 372 371 370 370 369 370 370 368 366 364 364 364 364 364 365 366
312 312 313 312 312 318 321 321 320 321 323 327 330 326 322 322 324 323 322 322 321 321 322 324 325 325 324 323 323 323 324 325 325 327 330 334 338 343 350 355 356 356 358 360 359 359 356 351 349 350 355 357 360 362 359 360 360 359 360 362 365 367 367 368 369 372 371 371 371 370 370 371 371 370 370 369 369 369 368 366 365 365 365 365 363 364 365
312 312 313 313 314 317 320 320 320 322 324 324 323 320 320 322 322 321 321 321 320 319 320 321 322 322 321 321 321 321 322 323 324 324 326 331 334 339 348 356 356 356 357 358 359 358 355 351 350 353 355 359 363 363 361 361 359 359 361 364 366 367 368 368 370 371 371 371 371 369 369 371 370 369 369 369 369 369 368 366 366 366 366 366 365 364 364
313 314 314 315 317 317 318 319 320 321 321 320 319 320 321 320 320 319 320 320 319 319 320 321 321 321 320 319 319 321 322 322 322 322 324 329 332 338 349 356 356 357 358 359 360 358 353 353 354 353 356 364 365 364 362 361 360 360 363 364 367 369 368 368 370 372 371 370 370 367 369 371 370 370 370 369 368 370 369 367 367 367 368 367 367 366 364
316 315 316 316 317 317 316 317 319 319 319 318 318 318 319 319 319 318 318 318 318 318 319 320 321 320 319 318 319 320 320 320 321 321 323 327 331 338 350 357 358 359 360 360 361 360 355 354 354 354 357 364 367 365 363 362 361 363 365 367 369 369 369 369 371 372 371 370 369 367 368 370 370 370 369 369 369 369 369 368 367 367 368 367 366 367 366
316 316 316 317 317 316 316 317 317 318 318 317 318 318 318 318 318 317 316 317 317 318 319 320 321 320 319 319 320 320 319 320 321 321 324 328 332 340 351 357 357 360 361 361 365 367 360 354 354 356 358 361 364 366 364 362 363 364 367 370 370 370 370 370 371 372 371 370 368 366 368 369 370 370 370 369 369 369 370 368 367 367 368 367 366 366 366
315 315 316 317 317 316 316 316 317 318 318 317 317 318 317 317 317 317 317 316 317 318 319 320 320 319 319 320 321 320 319 321 321 322 323 327 332 341 351 355 356 360 362 363 367 369 366 362 360 357 357 361 364 365 364 363 363 364 370 371 371 371 371 370 371 371 370 369 367 366 366 369 370 369 369 369 369 369 369 368 367 368 368 366 366 365 364
315 316 316 316 315 315 316 316 317 317 318 317 316 316 316 316 317 317 317 317 316 318 319 320 320 319 319 321 321 320 320 321 322 322 324 326 333 344 350 352 355 358 360 362 365 365 367 369 369 365 361 362 364 366 365 363 363 367 372 372 372 373 371 370 371 372 370 368 367 366 366 367 367 369 369 369 368 369 368 367 367 367 368 367 365 365 365
315 315 315 313 314 315 316 316 315 315 315 315 315 316 316 316 317 317 317 317 317 317 318 319 319 319 320 320 320 320 321 321 321 323 325 328 336 346 349 349 352 356 357 360 361 362 363 366 369 369 369 367 365 366 365 363 366 371 374 373 373 372 372 371 372 371 370 368 367 366 366 365 367 369 369 368 367 369 369 367 367 368 367 366 365 366 366
315 315 313 313 313 315 315 314 314 314 314 315 316 316 316 317 317 317 317 317 318 318 319 319 319 319 320 320 319 320 322 322 322 323 326 329 336 344 347 347 349 352 354 356 358 360 361 362 365 366 368 370 370 368 366 366 369 373 373 372 373 373 372 371 370 369 370 367 365 366 366 365 365 365 364 364 366 367 368 368 368 367 368 367 366 366 367
312 312 311 311 312 313 313 312 313 313 313 315 316 317 317 318 317 317 318 318 318 319 319 319 319 319 319 319 319 320 322 322 322 323 326 330 334 340 344 346 347 349 351 353 356 358 359 361 362 363 364 366 368 368 368 368 370 372 371 372 371 371 371 369 368 368 369 367 366 366 367 367 366 363 359 359 360 364 366 367 367 367 366 366 366 366 366
310 310 310 310 311 313 313 312 312 312 313 315 316 317 318 318 318 318 318 318 318 319 319 320 320 319 318 319 321 322 322 322 322 324 326 329 332 336 340 344 345 347 349 351 354 355 357 359 360 361 362 363 364 366 367 368 368 370 370 370 370 370 369 368 368 369 369 369 368 367 368 369 369 366 362 359 357 357 359 362 364 365 365 366 366 367 368
310 310 310 310 311 312 312 311 311 312 313 314 315 316 318 319 319 319 319 318 318 319 318 318 319 319 319 320 322 322 323 323 323 323 325 327 330 332 335 340 344 345 347 349 351 353 355 356 357 358 359 360 361 363 365 366 367 369 370 370 368 368 368 368 369 370 369 369 369 368 368 370 371 370 368 365 360 354 353 357 360 362 363 364 365 366 367
310 310 310 310 311 311 310 311 312 312 312 313 314 315 317 319 319 319 319 318 319 319 318 318 318 319 320 320 321 321 323 323 323 322 324 326 329 329 331 337 341 343 343 345 348 351 352 353 354 355 357 358 359 362 363 366 368 370 370 369 369 368 369 369 370 371 370 370 371 370 369 370 371 372 371 370 366 359 355 356 358 360 360 361 362 364 365
310 309 309 309 310 310 310 311 311 311 311 313 314 314 317 319 319 319 318 318 318 319 319 318 318 319 320 320 319 320 321 322 322 322 322 324 328 329 330 334 338 339 339 342 345 347 349 349 350 352 353 355 357 360 362 365 367 369 369 369 369 371 372 372 372 372 371 371 371 370 370 371 370 371 371 370 369 365 361 362 363 360 356 354 357 360 361
310 309 309 310 310 310 310 310 310 310 311 312 313 314 316 318 319 318 318 318 318 319 319 319 318 318 318 318 318 319 321 321 322 322 322 324 328 329 329 332 334 335 336 338 340 343 345 345 345 347 349 352 354 357 360 362 364 364 364 365 367 369 370 371 371 370 369 371 371 370 371 371 370 369 370 368 368 366 363 362 362 355 348 347 352 357 358
311 310 309 310 310 310 310 310 310 310 310 311 312 313 314 316 318 319 319 318 319 319 319 319 319 318 318 318 318 318 320 321 322 322 323 325 328 329 329 331 333 333 334 335 336 338 340 342 343 345 346 348 351 353 356 358 359 359 359 360 360 361 364 367 368 367 367 369 369 369 369 369 367 366 366 364 362 360 357 354 352 349 345 345 347 349 351
311 311 310 310 310 310 309 309 309 309 309 309 311 312 312 314 317 319 319 319 319 319 319 320 320 319 319 319 317 317 318 320 320 322 324 327 328 329 329 330 331 333 333 334 334 335 336 337 339 341 342 345 348 350 351 354 356 356 355 353 351 351 355 360 363 365 365 365 364 365 366 365 362 361 360 357 356 353 351 349 348 347 345 343 343 343 344
310 310 309 309 310 310 309 309 309 309 308 309 309 310 311 312 314 316 318 320 320 320 320 320 320 320 320 319 317 317 318 318 319 323 326 327 327 327 328 329 331 332 332 333 333 334 333 333 334 337 340 343 345 347 349 350 351 352 351 350 347 347 349 351 353 355 357 357 356 358 360 359 356 355 354 353 352 350 349 348 348 347 345 343 342 341 339
310 309 309 309 310 310 309 309 308 308 308 308 309 310 310 311 312 313 315 317 320 321 321 320 320 320 321 320 319 318 318 319 321 325 328 327 326 327 328 328 330 330 331 330 331 331 332 331 331 334 338 340 343 345 346 347 348 349 349 347 345 343 343 345 345 346 347 348 349 349 351 352 352 351 350 350 351 351 349 348 346 345 343 341 339 338 337
310 310 310 310 310 310 309 309 308 308 308 308 309 309 310 310 311 312 314 316 319 321 320 320 320 320 320 321 321 320 320 321 324 326 327 326 326 326 326 328 329 330 329 328 328 329 329 329 329 332 336 338 339 341 344 345 347 346 346 345 344 342 340 340 341 341 341 342 342 342 343 344 346 345 345 346 347 347 345 343 341 338 337 334 333 334 336
309 309 310 310 310 310 309 309 308 308 308 308 309 309 310 310 310 311 313 316 319 320 320 319 319 319 319 320 321 321 323 324 325 326 325 324 324 325 325 326 328 328 327 326 326 327 327 327 328 330 333 335 335 336 338 342 344 344 344 343 343 341 339 338 338 338 338 338 338 338 339 339 340 340 339 339 339 338 337 335 333 332 330 329 329 331 334
309 309 309 309 309 309 308 308 308 308 308 308 308 309 309 309 309 310 312 315 318 319 319 318 318 318 319 321 322 324 325 325 324 324 323 322 322 323 323 323 325 326 326 325 324 324 325 326 327 328 330 332 333 333 334 338 342 343 342 341 340 340 338 336 335 334 334 335 335 335 335 335 336 336 336 335 333 332 331 330 330 329 328 327 327 328 330
309 309 309 309 309 308 308 307 307 308 308 308 308 308 309 309 308 309 311 313 315 318 319 319 319 320 321 322 324 324 324 324 324 323 322 321 320 320 321 322 322 323 324 324 323 323 323 323 325 326 327 329 330 331 333 336 340 341 340 339 338 337 336 334 333 332 331 331 331 332 331 332 333 333 333 332 331 331 330 329 328 327 327 326 326 326 327
309 309 309 308 308 308 307 307 307 307 308 308 308 308 308 308 308 308 309 311 313 316 318 319 320 321 321 321 322 322 322 322 323 322 321 320 319 318 319 320 320 321 322 322 322 321 322 322 323 324 325 325 326 328 330 333 336 338 338 337 336 335 334 332 331 330 330 329 329 330 330 331 332 332 332 331 330 330 330 329 328 328 327 327 326 326 325
308 308 309 308 308 308 307 307 307 307 307 307 307 307 307 307 307 307 308 309 310 313 316 317 318 318 319 319 319 319 320 320 320 320 320 319 319 318 318 319 319 320 320 320 320 320 320 321 321 322 322 323 324 325 327 329 332 334 335 335 333 332 331 330 329 329 329 328 327 327 327 328 329 329 329 329 328 327 327 327 327 326 326 326 325 325 325
308 308 308 308 308 308 308 307 306 307 307 307 307 307 307 307 307 307 307 308 309 311 313 315 316 316 317 317 317 317 317 318 318 319 319 318 318 318 318 317 317 318 318 318 318 318 318 318 319 320 319 320 322 323 325 326 329 330 331 332 331 330 328 327 326 325 325 324 323 323 323 323 324 324 324 324 324 324 324 324 324 324 323 323 323 323 322
308 308 308 308 308 308 307 307 306 306 306 307 307 306 306 306 306 306 307 307 308 308 310 312 314 314 315 315 316 316 316 316 316 317 317 317 317 317 317 316 315 315 316 316 316 315 315 316 317 318 317 317 318 320 321 323 325 326 326 327 328 327 326 325 324 323 322 320 319 319 319 319 320 320 321 321 321 321 321 321 321 321 321 320 320 319 319
308 308 307 308 308 308 307 307 307 306 306 306 306 306 306 306 306 306 306 306 306 307 308 309 311 311 313 313 314 314 314 314 314 314 315 316 316 316 315 314 314 314 314 314 314 314 314 314 315 316 316 315 316 316 318 319 320 320 320 320 321 321 321 320 319 318 318 317 316 316 316 316 316 316 317 317 317 317 317 317 317 317 317 317 317 317 316
307 307 307 308 308 308 307 307 307 307 306 306 306 306 306 306 306 306 306 306 306 306 307 307 308 309 310 311 312 313 313 313 313 313 313 313 313 314 314 313 312 312 313 313 313 313 313 313 313 314 314 313 313 314 314 315 315 315 315 315 315 315 315 315 314 313 313 312 312 312 312 312 312 312 312 312 312 313 313 312 312 313 313 313 313 313 312
307 306 307 307 307 308 307 307 307 307 307 307 306 306 306 306 305 305 305 306 306 306 306 306 307 308 308 309 310 310 311 312 312 312 312 312 311 312 312 312 311 311 311 311 311 311 311 311 311 311 310 310 311 311 311 311 311 312 311 311 311 311 310 310 310 309 309 309 309 309 309 309 309 309 309 309 309 309 309 308 308 308 308 308 308 307 307
305 305 305 306 307 307 307 307 307 307 307 307 306 306 306 305 305 305 305 305 306 306 306 306 307 307 308 308 309 309 310 310 311 311 311 311 311 310 311 310 310 310 309 309 309 309 309 309 308 308 307 307 308 308 307 307 307 308 308 308 308 307 307 307 306 306 306 306 306 306 306 306 306 306 306 306 306 306 306 305 305 305 305 305 305 305 304
305 304 304 305 307 307 307 306 306 307 307 306 306 306 306 306 305 305 305 305 305 306 306 306 306 307 307 308 308 308 308 309 309 309 310 310 310 309 309 309 309 308 308 308 308 307 307 307 307 306 306 306 306 306 306 305 305 305 305 305 306 305 305 305 305 304 304 304 304 303 303 304 304 304 303 303 303 303 303 303 303 302 303 302 302 302 302
305 304 304 305 306 307 307 306 306 306 306 306 306 306 306 306 306 305 305 305 305 305 305 306 306 306 307 307 308 308 308 308 308 308 308 308 309 308 308 308 308 307 307 307 306 306 306 306 305 305 305 305 305 305 305 305 305 304 304 304 303 303 303 303 303 303 303 303 303 303 302 302 302 302 302 302 302 301 301 301 301 301 301 301 301 301 301
304 304 304 305 306 307 307 306 306 306 306 307 307 306 306 306 306 305 305 305 305 305 305 305 305 306 306 306 307 307 307 307 307 307 307 307 307 307 307 306 306 306 305 305 304 304 304 304 304 304 304 304 304 304 304 304 304 304 303 303 303 302 301 301 301 301 301 301 302 302 302 302 302 302 301 301 301 301 301 301 301 301 301 301 301 301 301
304 304 304 305 306 306 306 306 306 306 306 306 306 306 305 305 305 305 305 305 305 305 305 304 305 305 306 306 306 306 307 307 307 307 307 306 306 306 306 306 305 305 304 303 303 303 303 302 302 303 303 303 303 303 303 303 303 303 303 303 302 302 302 301 301 301 301 301 300 300 300 300 301 301 301 301 300 300 300 300 300 300 300 300 300 300 300
304 304 304 305 306 306 306 306 306 306 306 306 306 306 305 305 305 305 305 305 305 304 305 304 304 305 305 305 305 306 306 306 306 306 306 306 305 305 305 305 305 304 303 303 302 302 301 301 301 301 302 302 302 302 302 302 302 302 302 302 302 302 301 301 300 300 300 300 300 300 300 300 300 300 300 300 300 300 300 300 300 300 300 300 299 299 299
304 304 304 304 305 306 306 306 306 306 307 307 306 306 305 305 304 305 305 305 305 304 304 304 304 304 304 305 305 305 305 306 305 305 305 305 304 304 304 304 304 303 303 302 302 301 300 299 299 300 300 301 301 301 301 301 300 300 301 301 301 301 301 301 300 299 299 299 299 299 300 300 299 299 299 299 299 299 299 300 300 300 300 300 300 299 298
304 304 304 303 304 305 305 306 306 307 307 306 306 306 305 304 304 304 304 305 305 305 304 304 304 304 304 304 304 304 304 305 305 305 304 304 304 303 303 303 303 302 302 302 301 301 300 299 298 298 298 299 299 299 299 300 299 299 299 300 300 300 300 301 301 300 300 300 299 299 299 299 299 299 299 298 298 299 299 299 298 298 299 300 300 299 299
303 303 303 303 304 304 304 304 305 306 306 305 305 306 305 304 304 304 304 304 304 304 304 304 304 304 304 304 304 304 304 304 304 304 304 303 303 303 302 302 302 301 301 301 301 301 300 300 299 298 297 297 297 297 297 298 299 299 299 299 299 299 298 299 299 300 300 300 300 300 300 299 299 298 298 298 298 298 299 298 298 298 299 299 299 299 298
Wind_Speed
18 19 20 19 16 15 15 16 17 17 17 19 20 20 18 16 13 12 12 14 15 15 10 5 4 4 1 5 5 2 2 4 7 6 1 4 6 8 10 10 11 14 14 14 17 19 22 25 27 27 28 28 28 29 30 31 32 33 34 34 35 34 33 33 34 35 35 33 33 33 32 32 31 30 29 29 28 27 26 26 26 26 26 25 25 24 24
16 17 18 18 17 17 17 17 19 19 17 17 17 18 20 20 19 18 16 16 17 15 11 1 10 8 4 6 5 1 4 3 4 4 2 3 4 5 9 11 11 12 13 15 16 17 18 22 25 26 26 27 28 29 29 30 31 32 33 34 34 34 34 34 33 33 33 33 32 33 33 32 32 31 29 28 28 28 27 26 25 26 26 26 25 25 24
13 15 16 17 17 18 19 19 20 20 19 17 15 15 17 19 21 21 20 20 15 12 14 6 7 9 8 7 7 3 3 2 3 5 6 5 5 6 4 2 2 6 10 12 13 15 17 20 24 25 25 27 29 29 29 30 31 31 33 34 34 35 34 33 32 32 32 32 32 33 33 33 33 32 30 29 29 29 28 27 26 25 26 26 26 25 25
10 12 14 16 17 19 21 21 21 20 19 18 16 15 15 16 19 21 21 18 12 10 15 10 7 10 11 8 8 6 4 5 7 9 9 7 7 7 7 7 7 5 5 9 13 15 18 21 25 25 25 26 28 29 29 31 31 31 32 34 34 34 33 32 32 32 32 32 33 34 34 33 33 33 32 30 29 29 28 27 26 26 25 26 26 25 25
10 11 14 14 14 15 17 17 19 20 19 19 19 18 19 18 17 17 16 13 12 14 13 8 9 12 11 8 7 7 8 9 10 10 11 9 8 8 8 9 10 9 7 6 9 14 18 22 24 26 27 27 28 30 30 31 31 32 32 32 33 32 32 32 33 33 33 33 32 33 33 33 32 32 32 31 30 29 29 28 27 26 26 26 26 25 25
10 12 13 12 12 12 11 11 15 19 20 22 22 21 21 19 16 16 15 14 14 13 9 7 8 11 12 11 9 8 9 10 11 12 12 9 8 8 9 10 9 8 8 8 9 11 15 21 24 26 28 28 28 29 29 30 30 31 31 31 32 32 32 32 32 32 33 33 32 32 32 32 31 31 32 31 30 29 28 28 27 27 26 26 25 26 25
9 10 10 12 13 11 9 10 14 18 20 22 23 23 23 22 21 20 19 17 13 7 6 7 8 11 14 14 12 12 11 10 11 12 12 9 7 7 9 11 11 9 8 9 11 13 14 18 23 25 26 27 28 27 28 29 30 30 30 30 31 32 31 31 31 32 32 32 32 32 32 31 31 31 31 31 30 29 28 28 28 27 26 26 25 25 26
8 8 9 11 9 9 12 15 15 15 17 18 19 21 23 23 20 15 13 15 14 8 8 8 7 10 14 14 13 12 10 11 11 11 11 11 10 9 10 12 12 11 11 12 13 14 15 17 21 24 26 28 28 28 29 30 30 30 31 30 30 31 32 32 32 33 33 32 31 31 32 31 31 30 31 30 29 28 27 26 26 26 25 25 25 25 25
9 9 10 9 9 11 13 11 6 6 7 9 9 9 14 17 15 9 6 8 8 6 8 10 10 11 12 12 10 7 12 15 15 14 13 13 13 13 14 16 16 14 15 16 17 16 17 18 21 23 27 28 28 28 29 29 30 30 31 30 30 31 32 32 33 33 33 32 32 31 31 31 31 30 30 29 28 28 26 25 25 25 25 25 25 25 25
8 10 10 8 10 11 7 1 4 6 7 8 7 4 6 9 7 4 3 3 3 6 8 11 12 10 9 10 6 7 16 17 17 17 16 15 15 15 16 18 19 18 18 18 19 18 17 18 21 24 26 28 28 28 28 29 30 31 31 31 32 32 33 33 33 33 33 33 32 31 31 32 31 30 29 28 28 27 27 26 25 25 24 24 24 25 26
9 10 9 8 9 7 0 5 7 7 8 10 9 7 4 4 5 3 3 2 4 6 7 10 10 8 9 9 2 11 18 18 17 18 17 17 18 18 19 20 21 20 20 19 20 21 19 18 22 24 26 28 28 28 29 30 30 31 32 33 34 34 34 33 32 32 32 32 32 31 31 31 30 29 28 27 26 26 26 25 24 24 23 23 23 24 25
10 11 9 8 8 3 2 5 7 9 8 8 6 8 4 4 7 6 4 5 6 7 7 8 7 6 6 6 8 14 18 18 17 18 18 18 19 20 21 23 22 21 21 20 20 21 19 18 22 25 27 28 28 28 29 30 30 31 33 34 35 33 33 32 31 31 32 32 32 31 30 30 29 28 27 26 25 25 25 24 23 23 23 23 23 23 23
11 12 10 9 8 1 4 6 7 8 8 4 4 5 1 5 6 4 4 5 7 7 6 5 4 5 7 11 14 17 18 18 18 18 20 22 22 22 24 23 21 20 20 20 20 20 19 18 21 24 26 27 27 28 29 28 30 33 33 33 33 32 31 31 31 31 31 31 31 30 28 28 27 26 26 26 25 25 24 23 23 23 23 23 22 22 22
9 9 9 10 7 1 6 9 7 5 5 5 2 2 5 6 5 5 5 5 6 7 7 6 6 8 11 13 16 17 17 18 19 19 21 22 22 24 25 22 20 20 19 18 19 19 18 18 21 24 26 25 24 25 27 28 31 32 31 31 32 31 31 31 31 30 30 30 30 28 27 27 27 26 26 26 25 25 23 22 22 22 22 22 22 21 21
8 9 9 10 6 2 8 9 4 3 4 2 1 3 7 7 6 5 5 5 6 7 7 7 8 10 12 14 15 16 16 17 18 20 21 20 21 23 23 20 19 18 17 17 18 17 17 18 20 24 25 23 22 23 26 29 30 29 29 30 31 30 30 30 30 29 29 29 28 27 26 27 27 26 25 25 24 24 23 22 22 22 21 20 20 20 20
7 8 6 4 3 4 8 7 4 4 4 2 2 4 6 7 7 6 5 5 7 8 8 9 9 10 12 13 15 16 16 17 18 19 20 20 21 23 22 19 17 17 17 17 16 16 17 16 19 23 23 20 20 23 26 26 26 26 28 30 30 29 29 29 28 28 28 28 27 26 25 26 26 25 25 24 23 23 22 22 21 20 20 20 20 20 20
6 7 5 5 6 7 7 7 6 6 4 3 3 4 5 6 6 7 7 8 8 9 10 10 9 9 11 13 14 15 16 17 17 19 21 22 22 23 21 16 15 18 17 14 12 13 16 16 16 19 20 19 18 20 23 24 23 24 27 28 28 28 28 27 27 26 26 26 26 25 25 25 25 24 24 24 22 22 22 22 21 20 20 21 20 19 19
8 8 7 8 9 9 8 8 8 7 6 4 4 5 6 6 6 7 8 9 10 11 11 10 9 9 11 12 13 14 16 16 16 18 20 22 24 23 18 13 14 18 14 8 8 12 11 15 16 16 18 19 19 20 21 22 23 23 25 27 26 26 26 26 25 25 25 24 24 24 23 24 23 23 23 23 22 22 21 21 21 20 20 20 20 20 19
7 5 4 7 10 10 11 10 8 6 5 5 5 6 7 7 7 8 9 11 11 11 11 10 9 9 11 11 12 13 14 14 16 17 18 21 23 20 15 13 13 14 10 4 5 9 4 4 10 15 19 18 18 19 21 23 23 22 24 25 24 24 25 24 24 24 24 23 23 23 23 23 21 21 22 22 21 22 22 22 21 20 20 20 20 20 19
7 8 8 11 13 12 9 6 5 5 5 7 8 8 9 9 8 7 8 11 11 10 10 10 9 9 10 10 10 12 12 12 14 15 16 19 20 17 14 15 12 9 8 6 4 6 8 9 6 4 14 17 18 19 21 23 23 22 22 23 23 22 23 22 22 22 22 22 22 22 22 22 21 20 21 21 22 22 22 22 21 21 21 21 20 20 20
7 8 8 11 13 10 5 4 7 8 8 9 11 11 11 11 10 8 8 10 10 10 10 9 9 9 10 10 10 12 12 11 13 14 16 19 18 13 13 15 12 9 8 6 6 6 7 10 12 9 2 9 16 21 22 22 22 22 22 22 22 21 21 21 21 21 21 22 22 21 22 21 19 19 20 21 21 21 22 23 23 23 22 21 20 20 19
5 5 7 10 10 8 7 8 11 11 10 11 13 12 11 11 10 9 9 9 9 10 10 8 8 9 9 10 11 12 11 11 14 16 17 19 18 14 13 12 12 12 10 7 6 7 8 8 8 8 8 5 6 15 20 22 22 22 22 21 20 20 20 19 20 20 20 21 21 21 22 21 19 18 17 17 17 18 21 24 26 24 22 21 21 20 19
7 8 10 9 8 9 10 12 12 12 11 12 12 12 11 10 10 9 9 9 9 9 8 8 8 7 8 10 12 12 12 13 16 19 20 18 18 15 13 11 11 12 13 11 9 9 9 9 7 7 8 9 5 4 12 18 20 21 21 19 17 18 18 17 18 19 19 20 21 21 21 21 20 19 17 14 13 14 17 22 24 24 22 20 20 20 20
9 10 10 11 10 10 11 12 13 11 10 10 11 12 11 10 9 10 9 8 8 8 7 8 7 6 8 11 11 11 12 14 17 22 23 22 19 17 15 13 12 11 11 11 11 10 10 9 9 9 8 8 6 1 6 12 16 18 19 17 15 15 16 16 17 18 18 18 20 20 19 19 21 21 18 14 11 10 12 15 18 21 21 19 17 17 17
9 9 11 12 11 10 9 11 11 9 8 9 10 10 10 10 10 9 7 6 7 7 7 8 7 8 10 12 11 11 13 14 18 22 23 22 19 19 17 14 13 12 12 12 11 11 13 13 12 10 9 8 6 3 3 8 12 15 16 15 14 14 15 15 16 17 17 17 19 19 19 18 19 20 19 16 12 11 10 11 13 15 18 19 17 16 15
8 9 11 11 9 7 8 9 8 8 10 12 10 10 11 12 10 8 7 7 7 7 8 8 8 9 11 11 12 13 13 15 18 22 21 19 18 19 18 15 14 15 15 15 14 14 16 16 15 13 11 8 5 4 4 4 6 10 13 13 12 11 13 15 16 16 15 15 16 17 18 17 17 18 18 18 16 15 12 10 10 11 13 15 17 17 17
7 8 10 10 8 8 10 10 10 11 12 12 10 11 12 12 9 7 7 8 8 8 8 8 8 9 10 11 13 14 14 14 16 18 19 19 18 19 19 17 17 17 17 16 16 16 17 17 16 15 13 12 9 8 8 8 7 6 7 10 11 9 9 12 14 16 15 15 15 15 15 16 16 16 15 15 15 17 16 14 13 10 9 9 12 15 17
7 8 8 8 9 11 12 11 11 11 11 10 10 11 11 11 9 6 7 8 8 8 7 7 6 7 8 10 12 12 13 13 13 14 16 18 19 21 21 18 16 17 18 18 19 19 19 19 19 18 18 18 17 14 12 12 13 12 10 7 7 7 8 10 12 12 13 12 12 12 13 13 13 13 13 13 13 14 14 14 13 10 8 8 10 12 14
8 8 7 7 8 10 10 10 11 10 10 11 11 10 10 10 8 5 6 6 7 7 6 6 6 6 6 8 10 10 11 12 11 12 16 20 21 22 23 20 16 16 19 21 21 22 21 20 20 21 21 21 20 18 15 15 15 17 18 17 14 10 6 5 7 7 8 8 7 7 9 9 8 9 9 9 9 11 13 12 12 11 9 8 8 8 11
7 7 8 8 9 9 9 10 11 11 11 12 11 10 10 10 9 6 5 4 5 5 5 5 5 6 5 5 7 8 10 13 14 14 16 20 23 24 25 22 17 16 20 22 21 21 22 21 21 22 22 21 21 21 20 18 17 18 20 22 24 24 21 16 13 12 10 10 9 7 7 6 6 7 9 12 12 13 14 14 12 11 9 8 7 7 9
8 9 11 10 9 9 11 10 10 11 12 12 12 12 12 11 11 10 9 6 5 5 5 5 6 6 4 4 4 6 9 13 16 15 15 18 21 24 25 23 18 16 18 19 18 18 20 21 23 24 24 21 21 22 22 21 18 18 19 22 24 26 26 24 22 19 16 14 13 11 8 7 9 11 12 13 13 13 12 12 11 10 9 9 8 7 7
10 11 13 11 10 11 12 11 11 13 14 13 13 13 12 11 11 10 10 9 9 7 5 5 6 5 3 3 3 3 6 11 13 12 13 15 18 21 22 22 20 19 19 18 18 20 21 23 26 27 26 23 21 22 22 22 20 19 18 19 21 22 24 23 22 20 19 18 16 14 11 9 10 11 11 11 11 10 10 11 11 11 11 11 10 9 9
10 10 11 11 11 13 14 13 13 14 14 12 12 11 10 10 10 9 9 10 10 6 4 5 6 5 3 3 3 2 4 7 8 9 11 13 15 18 19 19 18 19 19 19 20 21 22 23 25 28 28 25 23 23 22 21 21 20 19 18 19 20 21 21 19 19 19 17 15 14 12 10 10 11 12 14 13 12 12 13 13 13 13 12 12 11 10
10 9 10 10 10 11 12 12 11 12 12 12 10 10 10 11 11 11 11 12 10 5 1 3 4 4 4 3 2 2 3 4 5 7 10 12 13 15 17 17 16 17 19 21 22 22 23 23 23 25 26 25 24 25 25 22 19 19 19 18 18 18 17 17 18 17 17 16 17 17 15 13 11 12 14 16 15 15 15 15 15 15 15 14 15 16 13
11 10 11 12 12 12 12 10 10 11 12 13 12 12 13 14 15 14 14 14 12 8 2 2 4 5 4 2 2 4 6 7 7 8 10 12 13 14 15 16 16 17 18 21 23 23 22 23 23 24 25 24 23 24 26 23 18 17 19 19 19 18 17 16 17 18 18 18 18 19 18 16 14 15 15 16 15 16 16 16 16 16 16 16 18 20 19
12 11 10 12 14 15 15 13 13 13 13 12 12 13 15 18 19 18 17 16 17 14 8 2 3 3 4 6 8 10 10 10 10 10 11 11 13 14 14 15 16 17 16 18 22 23 22 23 23 23 24 24 23 24 25 24 20 18 18 18 18 19 19 17 18 21 23 23 22 21 19 17 16 16 17 17 17 16 17 17 17 17 16 16 17 19 19
12 12 12 12 14 16 16 16 16 16 15 14 15 16 18 19 20 20 19 18 19 17 13 10 8 8 10 11 11 12 12 11 11 11 11 11 13 15 15 16 17 17 14 15 19 22 21 21 20 18 19 20 20 21 23 24 22 20 19 18 18 18 19 19 20 22 22 22 21 20 19 17 15 15 17 18 18 17 17 18 17 17 16 15 15 16 16
13 14 13 13 14 16 17 17 17 17 17 17 18 19 20 21 21 21 21 21 20 18 16 14 13 13 12 12 13 13 12 12 12 11 11 11 13 15 16 16 17 16 15 15 17 18 18 18 16 15 16 16 15 15 18 20 20 19 19 19 18 18 19 19 20 20 18 17 17 18 18 16 15 14 15 17 18 18 18 18 17 16 16 15 14 15 15
12 13 14 15 15 15 16 17 18 18 18 18 18 19 21 22 22 21 21 22 22 21 19 16 15 14 14 13 13 13 13 13 12 11 11 12 12 13 14 16 17 16 15 15 15 16 16 15 14 14 15 14 13 13 15 17 18 18 18 18 18 18 18 19 19 19 17 15 15 16 18 18 17 16 16 17 18 19 19 19 18 17 16 16 16 16 15
10 12 13 14 15 15 15 16 17 18 19 18 18 19 20 21 21 21 21 22 22 22 20 18 16 15 15 14 13 13 14 15 14 13 12 12 12 12 12 14 16 17 15 14 14 15 16 15 13 13 14 14 13 13 14 16 16 17 18 18 18 17 17 17 18 18 17 15 15 15 17 18 18 18 17 17 17 18 18 18 18 17 16 16 16 16 16
10 12 13 13 13 14 15 15 16 17 18 19 19 20 20 21 21 20 21 21 22 23 23 21 19 16 15 15 14 15 15 16 17 17 16 15 13 11 10 12 15 16 15 14 14 14 15 16 14 12 12 14 14 14 15 16 17 18 18 19 19 19 18 18 18 18 17 17 16 15 16 17 18 18 18 17 16 17 18 18 18 17 16 15 15 15 15
11 12 13 13 12 13 14 15 15 15 17 18 19 19 20 20 21 20 20 21 22 22 23 23 22 19 17 16 16 16 16 16 17 18 18 18 16 13 10 11 15 16 15 14 14 14 15 16 16 13 13 15 16 16 17 17 18 19 20 20 21 21 21 19 19 18 18 19 19 18 17 17 18 18 18 17 17 17 17 18 18 17 16 15 15 15 15
12 12 12 11 11 12 13 13 14 14 15 16 18 19 19 19 20 20 21 22 22 21 21 22 22 21 19 18 17 17 17 16 15 16 17 18 19 18 14 13 15 17 16 15 15 16 16 17 18 19 19 20 21 21 22 22 21 21 20 21 22 23 23 22 21 20 20 21 21 20 19 19 19 18 18 18 17 17 17 18 18 18 17 16 16 15 16
12 11 11 11 11 11 11 12 13 14 13 14 16 17 17 17 18 19 19 20 20 20 21 21 20 19 18 18 18 18 18 17 16 16 15 15 16 18 18 15 15 18 18 18 18 18 19 20 22 24 25 26 26 27 29 29 28 26 24 24 24 25 26 26 26 25 25 24 24 23 23 22 21 20 19 19 18 18 19 19 19 19 18 18 17 17 17
12 12 11 11 11 10 9 10 11 12 13 13 15 16 16 17 17 17 18 18 19 20 20 19 18 18 18 18 18 19 19 19 19 18 16 14 14 18 19 18 16 18 19 20 20 21 22 23 24 26 27 28 29 30 31 31 29 28 27 28 29 30 30 29 29 29 29 29 29 30 30 29 27 26 25 25 25 24 24 24 23 23 23 23 23 24 24
11 12 12 11 11 9 7 8 10 12 13 13 14 14 15 16 17 17 17 16 16 17 18 18 18 19 20 19 17 17 17 19 21 21 19 17 17 20 21 21 21 21 21 21 22 23 23 24 25 26 27 28 29 30 30 30 29 29 29 30 33 36 36 35 33 32 32 31 31 32 32 32 31 30 31 32 32 32 31 31 31 29 27 26 25 25 27
10 11 11 11 11 9 7 8 9 12 12 11 11 12 14 16 16 16 16 16 15 15 16 18 19 21 22 21 19 17 16 17 19 20 20 20 20 21 22 23 24 26 27 27 27 27 27 27 28 28 28 28 28 29 30 29 30 30 31 31 32 35 38 38 36 35 34 34 35 34 33 32 31 29 30 31 32 32 32 32 31 30 28 27 25 25 25
9 10 10 11 12 12 10 8 8 10 11 11 11 12 13 15 15 15 15 15 15 15 16 17 18 20 22 22 22 21 19 17 17 18 19 20 21 22 23 24 24 25 27 28 29 29 29 29 30 30 28 27 28 29 29 29 29 29 29 29 30 30 32 33 34 33 33 34 35 36 36 35 34 31 30 31 32 32 31 31 31 30 29 28 27 26 25
9 9 9 10 12 12 11 8 8 8 9 10 11 11 12 13 14 14 15 15 15 15 16 16 17 19 20 21 21 22 22 20 19 19 20 21 21 22 24 24 25 25 25 26 27 28 30 31 31 30 29 28 27 27 27 27 27 26 26 26 26 26 27 29 32 33 34 33 33 33 33 33 33 32 31 31 31 31 30 29 29 28 27 26 25 23 23
8 9 9 9 10 11 11 9 8 8 8 8 9 10 11 13 13 13 14 14 14 15 15 16 16 17 18 19 20 21 22 22 21 21 21 21 21 22 23 23 24 25 25 25 26 28 31 34 34 33 31 30 29 28 27 26 26 25 24 23 23 23 24 25 28 30 31 32 33 32 31 29 29 29 29 29 29 28 28 27 26 25 25 25 23 20 20
6 8 8 8 9 11 11 11 10 8 8 9 9 10 11 12 13 13 13 14 14 14 14 15 15 16 16 17 18 20 22 21 21 21 21 21 21 22 22 23 23 24 24 24 24 25 28 31 34 35 34 32 30 29 28 27 26 26 26 25 24 23 22 22 23 23 24 25 26 27 27 27 27 26 26 25 25 24 23 23 23 23 24 23 21 19 18
6 7 7 7 8 9 10 11 10 9 9 9 10 10 10 11 12 13 13 13 13 13 14 14 14 14 14 14 16 18 20 20 20 20 20 20 19 19 20 21 21 22 22 22 22 22 23 25 28 31 33 33 32 32 31 29 27 26 26 26 25 25 24 24 24 23 22 21 21 21 22 22 23 23 23 23 22 21 19 18 18 19 19 19 18 18 18
Wind_Direction
258 264 270 271 275 279 277 281 281 277 288 278 246 229 238 245 238 235 234 230 237 249 239 163 71 357 37 50 26 37 73 87 93 82 121 193 186 173 165 174 191 191 190 192 192 190 193 196 195 196 195 195 196 194 193 192 191 188 186 186 188 189 190 192 193 193 193 194 195 196 196 197 199 201 202 202 204 204 203 205 208 209 209 206 204 204 205
265 265 268 268 271 272 270 274 275 270 277 283 263 237 234 242 246 243 241 237 233 241 245 25 22 343 338 12 341 355 58 50 75 54 332 221 195 182 167 169 182 188 191 194 190 189 194 196 196 196 195 194 196 195 194 194 193 189 186 185 187 188 190 191 192 191 191 192 193 194 194 195 196 199 200 201 202 203 203 205 207 208 210 210 207 206 205
264 261 266 267 267 268 265 263 262 262 261 258 252 243 237 241 245 241 239 238 237 249 254 268 2 323 297 320 313 314 52 29 17 5 344 345 350 350 14 81 177 194 196 197 191 191 196 199 199 199 196 194 196 196 194 194 194 190 186 186 187 188 189 189 188 189 190 190 190 192 192 193 194 196 198 200 201 202 202 203 205 206 208 210 211 209 207
260 259 260 261 262 263 260 255 250 250 251 243 236 239 241 244 245 239 234 235 238 250 253 262 317 301 282 292 308 325 359 1 348 325 316 337 343 330 337 339 325 302 237 207 198 197 200 202 202 202 199 197 196 197 196 194 194 192 188 188 188 188 188 186 185 186 188 188 189 190 190 191 191 193 196 198 200 200 201 202 202 204 206 209 212 213 210
253 252 254 257 261 257 251 246 241 239 240 239 238 239 240 244 247 239 231 232 237 245 256 281 302 288 285 300 315 330 339 337 326 303 297 317 319 308 318 321 312 307 296 254 218 208 205 206 206 204 202 200 198 197 196 194 193 193 190 189 188 187 187 186 184 185 186 186 187 187 188 188 188 189 192 197 198 198 199 200 199 202 205 207 210 213 213
253 253 257 258 254 251 249 243 238 236 235 235 237 241 242 242 243 240 239 239 237 244 271 311 310 299 306 314 315 319 320 311 304 297 294 294 298 307 311 302 296 303 309 301 280 250 222 212 212 209 204 202 201 200 197 194 193 193 191 189 187 187 188 186 184 185 185 185 185 185 185 185 185 187 191 194 197 197 197 198 199 201 205 207 208 211 213
255 258 257 249 242 247 263 260 245 241 239 237 238 241 241 242 242 240 242 243 240 255 316 325 318 312 310 313 314 310 311 317 319 316 308 296 296 303 294 289 295 302 300 291 286 279 258 230 219 213 208 204 201 200 198 195 193 193 191 189 187 186 187 186 184 185 185 184 184 183 183 183 184 187 190 193 195 196 196 197 199 200 204 206 207 208 211
247 249 242 244 254 262 260 256 252 249 248 249 248 242 237 238 240 240 246 248 246 267 321 325 322 317 311 310 305 304 328 357 354 345 338 326 319 311 299 295 298 299 297 289 279 275 270 253 231 217 210 206 201 198 198 195 193 192 191 189 187 186 187 187 185 185 185 183 183 182 182 184 185 187 189 191 194 196 197 199 200 200 202 205 206 207 209
236 242 242 246 262 262 250 247 264 284 280 277 269 255 247 240 228 222 244 255 260 292 324 329 328 324 313 297 286 318 5 8 354 343 337 326 316 308 301 299 298 298 296 291 283 272 263 258 245 223 210 206 201 197 197 194 192 191 190 189 187 186 188 188 186 185 185 183 183 183 182 184 186 188 189 190 192 195 197 199 200 201 202 205 206 207 208
235 243 247 245 250 251 241 196 29 13 349 320 297 277 274 258 225 200 240 271 330 337 334 333 327 317 291 263 261 4 5 353 344 338 330 321 315 309 303 299 296 297 295 290 289 282 265 252 246 231 212 204 200 196 195 194 191 191 189 188 188 186 188 189 187 185 185 184 183 184 184 186 188 188 188 189 191 193 197 199 201 202 203 205 207 208 210
238 241 241 238 244 248 255 39 12 359 357 339 301 247 235 305 322 331 320 329 10 0 343 328 315 292 260 243 271 7 350 340 339 333 325 322 318 312 307 299 294 297 300 298 295 288 273 251 241 232 214 203 198 194 194 193 191 190 190 188 187 187 187 188 186 185 185 186 185 186 186 187 188 188 187 188 190 192 197 201 203 204 204 206 209 210 211
238 243 242 241 244 248 43 18 351 343 351 353 299 232 204 1 337 324 331 347 8 7 341 316 301 282 271 281 327 343 336 332 332 327 323 321 317 312 305 297 295 300 301 296 289 280 268 249 238 228 213 202 197 193 194 193 190 191 192 189 187 186 185 185 186 185 186 187 187 188 188 187 188 187 186 187 189 192 198 203 205 206 207 208 211 211 212
233 237 241 248 244 223 20 339 336 343 336 322 255 233 302 356 336 340 357 355 1 355 332 320 313 302 304 310 318 326 329 329 327 325 323 319 316 312 304 298 299 300 295 290 283 273 262 248 237 225 210 200 194 191 192 193 192 192 191 186 184 183 183 184 186 186 187 188 188 189 188 186 186 187 186 187 190 192 197 202 204 207 210 211 214 215 214
230 232 240 251 244 85 6 327 329 349 311 262 230 321 325 315 322 356 2 358 2 347 328 327 320 309 311 314 316 323 328 327 324 324 323 321 320 315 308 301 296 292 287 286 281 270 256 241 229 219 208 197 189 187 190 195 195 191 186 182 181 181 182 184 185 185 185 186 186 188 189 187 186 187 187 189 191 192 196 201 203 206 210 212 216 218 217
230 233 240 247 245 18 358 334 338 5 328 298 335 330 314 313 331 348 339 342 352 338 327 329 320 313 317 321 324 326 325 325 325 323 321 321 319 313 307 299 293 290 287 285 279 266 253 238 220 212 207 193 182 185 192 196 195 187 181 179 179 180 181 182 183 183 183 184 185 187 188 186 185 186 186 188 190 191 194 199 202 205 207 210 215 218 218
229 227 231 251 282 341 349 347 352 352 347 347 316 307 315 326 333 333 321 324 333 329 325 324 320 321 326 328 329 329 326 326 325 321 319 319 316 311 304 297 297 299 292 282 273 259 246 231 213 209 203 183 175 186 192 194 192 183 177 176 176 178 181 181 180 181 181 183 185 187 187 185 185 185 185 187 188 189 192 196 199 202 204 206 212 217 219
275 267 276 310 310 305 321 337 338 325 306 282 289 297 299 306 321 331 324 317 322 325 321 318 320 328 332 329 329 330 327 324 321 318 316 314 312 309 303 297 305 308 291 275 280 274 246 218 205 209 198 175 173 185 188 189 188 178 171 173 175 177 179 179 178 178 179 182 184 185 185 184 184 184 184 185 187 187 189 194 198 202 203 204 209 214 218
309 293 289 311 314 309 313 318 319 310 292 281 293 296 291 296 306 313 311 310 315 317 315 317 324 329 329 327 328 330 326 321 318 316 315 315 313 310 308 312 321 317 298 271 304 306 253 199 192 202 194 181 181 183 182 186 186 176 170 172 175 177 177 177 176 175 177 180 183 185 185 184 185 185 184 185 186 187 189 194 197 201 204 205 207 211 217
308 292 314 343 332 318 311 308 305 306 302 301 297 289 294 300 295 293 299 304 307 308 309 316 324 329 330 330 329 329 325 319 315 313 316 318 313 309 317 330 328 326 328 326 334 337 334 186 197 201 192 186 182 177 179 185 184 176 172 172 174 175 175 174 174 175 176 178 180 183 185 184 184 185 185 186 187 188 191 195 197 201 204 206 207 209 214
293 287 313 333 322 305 302 320 335 332 319 305 295 288 288 288 284 285 292 293 296 302 308 317 324 327 332 337 333 325 321 315 310 309 312 313 309 310 330 343 342 344 355 6 11 8 14 14 359 208 187 185 181 175 178 184 181 174 172 173 173 174 173 172 173 174 174 176 179 183 185 185 186 186 188 191 192 193 195 196 197 200 203 205 207 208 210
285 289 315 334 325 302 291 350 348 331 318 307 299 294 290 285 280 278 277 281 293 301 304 315 326 326 330 338 329 318 317 315 310 311 311 309 310 323 345 349 356 9 8 12 29 22 15 21 23 29 91 182 186 182 181 181 176 171 173 175 174 172 171 171 172 172 173 177 182 185 185 184 182 183 187 193 195 196 197 198 200 202 202 203 205 206 208
294 322 338 339 325 298 292 319 324 318 315 309 300 296 291 284 281 281 278 279 290 294 296 312 328 325 324 329 324 317 319 318 314 317 320 315 317 336 352 351 360 14 14 17 39 37 24 28 40 42 36 47 164 182 184 181 174 172 175 176 174 172 174 175 174 174 177 180 184 187 186 181 173 170 176 185 190 191 193 197 202 205 203 203 204 203 205
310 324 326 321 308 294 299 310 314 313 312 307 302 301 296 289 282 278 277 281 286 289 297 315 328 324 317 319 320 320 321 321 321 325 330 326 323 334 352 1 10 19 22 23 35 47 41 33 44 57 46 41 55 176 188 180 175 175 177 176 174 175 178 178 176 176 180 181 183 188 189 181 170 163 164 167 172 180 185 190 197 202 203 204 204 201 202
315 316 320 318 306 298 302 308 309 308 308 309 307 302 299 298 289 274 267 275 285 291 300 307 314 319 314 312 315 318 321 325 331 334 334 333 332 338 353 13 20 19 21 22 29 47 59 55 54 59 56 48 42 41 187 180 178 178 176 176 175 174 176 176 174 178 183 183 182 186 190 184 172 166 162 156 148 152 166 177 187 194 197 200 202 201 201
328 324 324 318 305 300 311 313 307 305 311 313 307 299 300 306 299 282 268 268 277 283 285 289 298 309 309 309 315 322 325 330 339 340 336 335 342 347 351 5 18 17 18 23 31 51 67 68 63 62 58 49 43 53 152 177 182 178 174 176 178 175 176 175 174 180 188 185 182 186 191 189 176 167 168 170 159 145 147 161 175 186 192 195 198 197 194
338 329 326 319 306 311 329 326 318 321 323 317 309 304 305 304 299 290 275 264 268 273 274 279 292 300 304 312 322 328 327 330 341 345 337 332 344 350 347 355 14 20 19 23 32 49 65 69 65 61 57 51 54 68 82 123 165 168 168 172 171 169 175 178 178 184 191 189 185 187 192 193 184 174 179 186 176 160 156 160 167 180 191 196 198 197 195
343 337 337 332 328 335 340 335 328 325 322 319 316 313 308 304 298 288 270 259 257 259 262 268 281 291 304 320 327 329 328 329 340 347 337 328 337 347 348 359 19 23 20 20 28 41 55 58 54 47 39 35 40 51 59 68 83 105 139 160 159 148 149 163 174 184 189 189 188 189 192 197 194 184 183 185 174 165 172 185 184 174 172 185 197 201 202
346 348 347 341 335 334 333 330 329 328 327 328 324 317 312 308 294 266 249 249 249 248 253 261 267 280 305 320 323 326 329 329 336 342 334 326 334 346 351 1 18 27 26 22 22 30 41 45 42 36 28 24 31 44 59 68 66 60 66 98 133 142 146 158 170 180 183 183 186 189 186 189 195 194 190 190 180 167 169 180 176 152 138 163 189 199 203
350 349 348 340 328 327 333 338 339 341 345 342 337 334 332 325 309 274 248 245 243 243 248 252 251 257 282 308 319 325 329 329 330 330 330 334 344 351 352 355 7 25 33 30 22 22 29 35 37 34 26 22 28 38 50 63 66 59 57 59 59 56 72 127 147 148 143 137 139 154 160 163 181 191 180 165 149 131 124 129 129 122 125 151 174 183 190
354 352 353 346 333 336 355 360 354 354 357 353 350 351 348 340 336 330 313 276 251 247 241 234 244 253 263 291 315 322 323 323 320 320 332 348 356 354 350 353 2 18 29 29 22 18 21 27 29 26 22 23 31 38 45 58 70 70 64 60 56 53 56 68 80 88 96 95 89 101 127 125 110 111 114 109 104 104 107 111 115 120 132 147 152 158 168
360 1 359 351 342 351 4 6 2 3 3 359 358 359 356 353 350 343 336 328 303 277 251 233 239 247 247 263 294 316 322 317 313 320 346 5 2 353 350 355 6 18 23 22 18 15 18 22 23 20 18 24 37 44 47 53 62 68 66 61 57 57 61 66 69 71 75 74 68 72 87 94 90 93 100 102 102 103 107 114 123 132 141 144 142 142 150
4 6 2 356 353 360 6 6 4 5 4 2 2 1 357 353 346 335 329 325 313 297 275 250 244 239 235 245 260 295 309 305 309 331 5 14 4 353 350 353 4 17 21 18 17 17 17 17 17 18 20 25 32 41 47 52 56 62 66 63 58 56 58 63 65 67 68 66 62 60 62 73 88 96 98 100 108 118 126 133 139 141 135 127 122 124 134
9 10 4 0 358 0 4 5 3 3 4 2 360 358 356 353 345 333 327 324 316 298 256 235 238 235 237 249 246 259 293 306 323 357 21 19 5 355 350 349 360 14 18 16 17 20 19 15 13 17 23 25 24 28 38 48 57 62 64 64 63 60 59 61 65 67 68 68 66 63 61 64 75 85 92 102 114 126 129 125 120 114 107 101 101 110 127
15 17 9 4 2 2 5 5 0 360 2 0 359 2 3 1 354 344 338 336 334 329 230 213 236 236 229 237 256 291 339 356 7 19 24 21 10 360 353 352 1 14 17 16 17 18 17 14 12 17 24 25 21 23 28 35 48 61 64 63 64 64 60 60 63 67 70 73 73 72 69 69 73 82 93 103 109 111 110 107 103 101 98 94 95 100 109
16 21 14 9 9 11 15 13 3 0 2 2 2 6 6 5 3 356 349 348 349 353 7 189 212 214 201 183 55 46 45 46 47 43 34 26 18 9 3 4 10 14 15 15 15 13 12 12 13 19 26 24 18 20 26 28 38 56 65 67 67 65 61 58 60 63 65 67 71 71 69 71 83 93 97 98 98 97 98 99 100 100 98 94 95 97 97
14 17 13 11 11 13 18 19 12 7 6 3 3 5 6 9 10 3 357 357 360 3 13 74 174 161 100 71 56 52 51 49 52 54 49 39 28 19 15 17 19 18 16 13 9 6 6 10 13 19 27 25 15 15 25 32 39 50 60 66 70 70 66 62 61 64 66 66 68 72 73 76 85 93 95 94 95 97 98 98 98 99 99 96 93 91 90
18 17 14 13 12 12 17 21 18 13 10 8 9 10 9 10 11 8 6 7 6 7 20 44 58 57 58 58 55 52 48 48 53 56 54 47 38 31 28 25 21 19 19 12 3 359 1 7 11 21 31 29 16 11 22 36 45 49 51 55 62 69 71 67 62 62 64 65 67 72 77 80 84 89 91 91 93 95 97 99 100 101 103 101 95 91 93
17 19 16 14 14 15 17 20 22 20 14 10 12 14 12 12 12 12 12 13 10 8 20 41 53 53 52 51 51 49 44 44 51 56 54 49 45 40 36 29 22 19 17 8 0 359 0 3 8 21 31 31 21 13 21 35 47 52 51 51 53 59 66 70 68 64 62 62 64 68 71 72 72 75 80 83 86 90 94 96 97 98 98 99 98 96 95
13 17 17 15 16 19 20 20 22 23 20 15 14 15 14 14 15 15 17 18 16 13 18 32 46 50 48 47 47 44 38 37 44 51 52 53 54 52 45 36 28 23 16 7 3 4 5 5 11 23 27 26 24 24 27 36 48 57 59 58 58 58 62 69 74 73 68 61 57 60 65 66 64 65 71 78 83 87 90 91 92 92 91 91 93 91 88
10 14 19 18 15 17 20 20 20 23 25 23 21 18 16 15 16 18 20 21 21 21 23 29 37 41 42 43 45 44 40 38 40 43 47 51 55 55 49 37 28 23 19 13 10 9 9 11 17 26 29 28 29 34 37 41 50 60 65 66 67 67 67 70 74 77 77 72 65 63 66 68 67 67 72 77 79 81 83 84 85 86 86 86 87 87 87
11 12 20 23 19 17 20 22 21 22 26 28 26 24 21 20 19 20 20 20 22 25 28 31 33 34 31 33 39 44 44 42 42 42 43 44 46 48 46 35 26 21 19 18 18 17 18 22 27 33 39 43 44 49 53 55 55 59 64 67 69 70 69 69 69 71 73 74 71 66 65 66 65 65 65 66 69 73 76 77 79 81 83 86 89 90 90
12 11 18 22 21 20 23 26 24 23 26 29 29 28 27 25 24 24 23 23 24 26 28 29 31 32 30 30 33 36 37 40 42 45 45 44 41 41 42 36 28 24 23 26 29 30 32 36 39 46 55 60 60 62 64 65 63 61 61 63 68 71 71 68 66 65 68 71 71 69 67 67 66 65 63 63 63 66 69 71 74 75 76 79 84 85 84
14 16 17 17 20 22 23 26 29 28 27 30 32 33 32 31 29 27 26 26 27 28 28 28 28 29 31 35 38 36 34 33 36 41 47 47 44 41 42 40 35 33 35 39 42 43 45 48 53 59 67 72 75 76 74 72 70 69 64 62 65 70 71 70 67 66 66 67 68 68 69 68 67 68 68 67 66 66 67 69 70 71 72 75 76 75 76
13 16 14 16 24 27 20 22 31 34 30 31 35 36 36 37 35 31 28 27 27 29 31 30 27 26 30 39 45 44 39 35 34 37 43 47 44 41 42 45 46 45 47 50 52 52 53 56 61 66 70 72 74 76 76 75 74 74 72 70 70 70 70 70 70 69 68 68 67 66 67 68 68 70 71 70 68 68 67 67 69 71 72 72 71 70 72
9 10 12 24 41 38 13 9 29 41 36 33 35 36 37 38 39 37 34 30 28 28 30 30 28 27 30 38 48 52 49 45 43 42 44 46 45 42 44 48 53 55 56 59 60 60 59 61 64 68 70 71 72 74 74 74 74 73 73 74 75 75 74 72 71 71 72 74 73 73 72 71 70 71 74 75 74 73 71 69 69 69 70 71 71 73 76
11 8 9 26 51 54 12 357 24 43 42 37 37 37 36 37 40 42 42 39 35 31 30 30 31 32 32 35 43 51 54 51 47 46 48 52 53 52 52 56 60 61 62 63 64 63 62 65 68 68 69 71 74 75 75 75 75 75 74 74 75 77 77 76 75 74 75 76 76 77 77 76 74 74 75 75 75 76 76 75 73 72 70 69 69 71 73
12 13 13 24 43 47 25 12 30 42 42 41 42 41 38 38 39 40 43 45 45 42 38 35 34 36 38 39 41 45 50 52 51 50 51 55 58 59 60 63 65 66 66 66 65 62 61 64 67 68 68 69 72 73 74 75 75 76 75 74 74 76 78 79 78 77 77 76 76 77 78 77 76 74 74 74 74 75 75 74 73 71 69 68 67 68 69
10 16 20 25 32 33 26 26 37 43 39 36 36 37 40 43 40 38 40 44 47 46 43 40 37 38 41 44 46 48 51 54 53 51 52 56 60 62 62 63 65 67 68 67 63 59 59 62 63 61 61 63 67 69 70 71 72 73 74 73 72 73 76 78 79 79 79 78 78 78 77 76 75 73 72 72 73 73 73 72 72 72 71 69 68 67 66
11 15 21 28 35 38 35 31 32 38 39 33 25 24 34 43 42 38 39 43 44 44 44 42 40 40 42 45 47 52 57 61 61 57 55 57 61 63 62 61 62 64 66 65 61 58 60 64 64 59 55 57 60 61 62 64 67 69 70 71 71 72 73 75 78 80 81 81 81 80 79 77 77 76 76 75 75 75 75 74 73 73 73 71 68 67 68
14 18 20 23 32 40 42 35 29 33 40 37 24 19 30 43 45 41 40 42 46 48 48 47 45 44 45 47 51 55 60 65 67 66 63 61 61 61 61 60 59 60 62 62 60 58 61 65 65 62 58 56 55 55 56 58 60 62 64 65 67 71 73 74 76 78 80 80 80 79 79 79 79 80 81 80 79 80 81 80 79 81 82 80 76 75 75
15 25 29 27 30 35 39 39 38 38 38 34 25 19 26 39 48 48 44 43 47 52 54 54 53 53 52 52 54 57 60 63 67 69 68 67 65 64 63 62 61 60 60 60 59 58 58 60 63 64 64 62 59 59 58 57 57 58 59 59 60 63 67 68 70 72 74 76 76 76 77 78 79 80 81 82 81 80 80 82 85 87 86 84 83 87 87
22 26 27 29 34 35 34 37 44 46 42 37 32 25 23 33 44 49 48 46 49 54 58 61 62 62 61 61 61 61 61 63 65 66 66 66 65 65 65 64 63 61 60 59 59 58 57 57 59 62 65 65 66 67 67 64 60 58 57 56 58 60 62 64 66 66 66 67 69 70 71 72 73 74 76 78 78 78 78 79 82 82 79 77 79 82 84